GW1859 Weather Reports


time (UTC)temp
F
wind
direction
speed
knots
gust
knots
rain 1hr
in
rain 24hr
in
rain mn
in
humidity
%
barometer
mb
20260902224629 103 26 0.9 4.3 0.00 0.00 0.00 26 1012.9
20260902224125 104 108 0.0 3.5 0.00 0.00 0.00 26 1012.9
20260902223621 103 316 1.7 5.2 0.00 0.00 0.00 26 1012.9
20260902223120 104 280 3.5 6.1 0.00 0.00 0.00 26 1012.9
20260902222619 103 54 1.7 2.6 0.00 0.00 0.00 26 1013.1
20260902222119 103 94 1.7 5.2 0.00 0.00 0.00 27 1013.3
20260902221613 103 73 1.7 4.3 0.00 0.00 0.00 26 1013.2
20260902221108 104 35 2.6 4.3 0.00 0.00 0.00 26 1013.2
20260902220604 104 37 1.7 4.3 0.00 0.00 0.00 26 1013.2
20260902220058 103 216 0.0 5.2 0.00 0.00 0.00 27 1013.2
20260902215554 104 91 1.7 5.2 0.00 0.00 0.00 26 1013.3
20260902215050 104 344 1.7 5.2 0.00 0.00 0.00 27 1013.5
20260902214549 105 193 4.3 5.2 0.00 0.00 0.00 26 1013.5
20260902214049 105 358 1.7 2.6 0.00 0.00 0.00 26 1013.5
20260902213544 105 49 3.5 4.3 0.00 0.00 0.00 26 1013.7
20260902213044 105 200 1.7 3.5 0.00 0.00 0.00 26 1013.5
20260902212539 105 195 1.7 2.6 0.00 0.00 0.00 26 1013.6
20260902212035 104 112 1.7 5.2 0.00 0.00 0.00 27 1013.6
20260902211532 105 220 2.6 4.3 0.00 0.00 0.00 26 1013.7
20260902211026 104 347 1.7 2.6 0.00 0.00 0.00 27 1013.8
20260902210526 105 295 1.7 2.6 0.00 0.00 0.00 27 1013.9
20260902210026 105 63 5.2 5.2 0.00 0.00 0.00 26 1013.9
20260902205520 104 308 0.9 3.5 0.00 0.00 0.00 27 1014.1
20260902205016 103 180 3.5 5.2 0.00 0.00 0.00 27 1014.1
20260902204515 104 250 1.7 5.2 0.00 0.00 0.00 27 1014.2
20260902204010 104 331 1.7 6.1 0.00 0.00 0.00 28 1014.2
20260902203506 104 79 1.7 5.2 0.00 0.00 0.00 27 1014.3
20260902203004 103 49 0.0 4.3 0.00 0.00 0.00 29 1014.2
20260902202501 102 84 0.0 3.5 0.00 0.00 0.00 29 1014.6
20260902201957 103 54 0.9 6.1 0.00 0.00 0.00 28 1014.5
20260902201457 103 125 1.7 6.1 0.00 0.00 0.00 29 1014.5
20260902200952 103 176 0.9 4.3 0.00 0.00 0.00 29 1014.7
20260902200447 103 262 0.9 3.5 0.00 0.00 0.00 29 1014.6
20260902195943 102 2 1.7 7.8 0.00 0.00 0.00 30 1014.5
20260902195438 102 163 1.7 3.5 0.00 0.00 0.00 29 1014.8
20260902194937 103 186 2.6 6.1 0.00 0.00 0.00 28 1014.7
20260902194437 102 308 0.9 2.6 0.00 0.00 0.00 29 1014.8
20260902193932 100 280 2.6 3.5 0.00 0.00 0.00 31 1014.8
20260902193428 102 220 5.2 5.2 0.00 0.00 0.00 29 1015.0
20260902192927 102 249 7.8 7.8 0.00 0.00 0.00 29 1015.2
20260902192426 102 86 0.0 4.3 0.00 0.00 0.00 29 1015.2
20260902191924 102 250 2.6 7.0 0.00 0.00 0.00 29 1015.3
20260902191420 102 240 8.7 10.4 0.00 0.00 0.00 29 1015.2
20260902190915 101 105 1.7 9.6 0.00 0.00 0.00 29 1015.3
20260902190411 102 317 1.7 6.1 0.00 0.00 0.00 29 1015.3
20260902185906 101 167 0.9 8.7 0.00 0.00 0.00 30 1015.4
20260902185402 101 237 3.5 7.8 0.00 0.00 0.00 30 1015.4
20260902184857 102 224 4.3 11.3 0.00 0.00 0.00 29 1015.5
20260902184352 102 332 0.9 3.5 0.00 0.00 0.00 30 1015.8
20260902183848 101 225 1.7 11.3 0.00 0.00 0.00 31 1015.8
20260902183344 101 198 3.5 7.0 0.00 0.00 0.00 30 1016.0
20260902182840 100 249 2.6 5.2 0.00 0.00 0.00 32 1015.8
20260902182336 100 151 1.7 7.0 0.00 0.00 0.00 32 1016.3
20260902181833 101 223 4.3 7.0 0.00 0.00 0.00 32 1016.1
20260902181328 100 248 7.0 7.8 0.00 0.00 0.00 33 1016.1
20260902180827 99 241 2.6 8.7 0.00 0.00 0.00 33 1016.2
20260902180323 100 253 1.7 6.1 0.00 0.00 0.00 32 1016.2
20260902175818 99 300 3.5 7.8 0.00 0.00 0.00 34 1016.1
20260902175313 100 226 1.7 10.4 0.00 0.00 0.00 33 1016.2
20260902174809 99 248 0.9 6.1 0.00 0.00 0.00 34 1016.5
20260902174306 98 223 1.7 9.6 0.00 0.00 0.00 34 1016.4
20260902173801 98 184 2.6 8.7 0.00 0.00 0.00 36 1016.6
20260902173301 98 213 5.2 7.0 0.00 0.00 0.00 35 1016.3
20260902172755 98 231 3.5 6.1 0.00 0.00 0.00 35 1016.7
20260902172255 98 232 4.3 8.7 0.00 0.00 0.00 35 1016.8
20260902171750 99 232 6.1 8.7 0.00 0.00 0.00 35 1016.7
20260902171245 98 162 2.6 5.2 0.00 0.00 0.00 36 1016.8
20260902170742 98 246 3.5 7.0 0.00 0.00 0.00 35 1017.0
20260902170237 97 211 2.6 7.0 0.00 0.00 0.00 37 1017.0
20260902165732 97 180 2.6 4.3 0.00 0.00 0.00 37 1017.1
20260902165231 97 226 1.7 7.8 0.00 0.00 0.00 38 1016.7
20260902164727 97 232 1.7 6.1 0.00 0.00 0.00 38 1017.2
20260902164227 96 221 4.3 6.1 0.00 0.00 0.00 38 1017.3
20260902163722 95 80 0.9 8.7 0.00 0.00 0.00 39 1017.3
20260902163221 95 213 5.2 8.7 0.00 0.00 0.00 39 1017.4
20260902162720 95 180 1.7 10.4 0.00 0.00 0.00 39 1017.4
20260902162215 94 256 1.7 8.7 0.00 0.00 0.00 41 1017.4
20260902161709 94 220 2.6 6.1 0.00 0.00 0.00 41 1017.5
20260902161205 94 213 6.1 12.2 0.00 0.00 0.00 41 1017.6
20260902160702 94 226 1.7 5.2 0.00 0.00 0.00 41 1017.5
20260902160156 93 267 1.7 7.8 0.00 0.00 0.00 42 1017.7
20260902155654 93 240 2.6 8.7 0.00 0.00 0.00 42 1017.5
20260902155153 92 146 1.7 5.2 0.00 0.00 0.00 43 1017.7
20260902154649 93 192 2.6 7.8 0.00 0.00 0.00 43 1017.4
20260902154148 92 162 2.6 8.7 0.00 0.00 0.00 43 1017.6
20260902153648 92 232 7.8 8.7 0.00 0.00 0.00 43 1017.6
20260902153143 91 201 5.2 7.0 0.00 0.00 0.00 44 1017.5
20260902152640 91 165 4.3 12.2 0.00 0.00 0.00 45 1017.6
20260902152135 91 242 0.0 4.3 0.00 0.00 0.00 45 1017.6
20260902151631 90 251 2.6 4.3 0.00 0.00 0.00 46 1017.5
20260902151131 89 184 6.1 7.0 0.00 0.00 0.00 46 1017.6
20260902150626 89 191 1.7 6.1 0.00 0.00 0.00 47 1017.5
20260902150122 89 233 1.7 7.0 0.00 0.00 0.00 47 1017.6
20260902145621 88 294 0.9 7.0 0.00 0.00 0.00 47 1017.6
20260902145121 88 175 2.6 5.2 0.00 0.00 0.00 48 1017.5
20260902144618 87 206 0.0 5.2 0.00 0.00 0.00 49 1017.5
20260902144118 87 224 2.6 5.2 0.00 0.00 0.00 49 1017.7
20260902143613 86 71 0.9 6.1 0.00 0.00 0.00 51 1017.6
20260902143108 85 229 1.7 7.8 0.00 0.00 0.00 51 1017.7
20260902142605 84 198 0.0 5.2 0.00 0.00 0.00 53 1017.8
20260902142059 83 216 1.7 3.5 0.00 0.00 0.00 54 1017.8
20260902141559 83 293 0.0 5.2 0.00 0.00 0.00 55 1017.6
20260902141055 83 268 1.7 3.5 0.00 0.00 0.00 55 1017.6
20260902140549 82 230 1.7 2.6 0.00 0.00 0.00 56 1017.6
20260902140045 82 183 1.7 6.1 0.00 0.00 0.00 56 1017.7
20260902135544 82 242 0.9 2.6 0.00 0.00 0.00 57 1017.7
20260902135044 81 224 0.9 5.2 0.00 0.00 0.00 57 1017.5
20260902134541 81 124 1.7 3.5 0.00 0.00 0.00 58 1017.7
20260902134040 80 209 3.5 5.2 0.00 0.00 0.00 58 1017.4
20260902133535 80 260 0.0 4.3 0.00 0.00 0.00 59 1017.4
20260902133035 79 209 1.7 3.5 0.00 0.00 0.00 60 1017.5
20260902132531 79 218 2.6 5.2 0.00 0.00 0.00 60 1017.4
20260902132026 78 299 0.0 2.6 0.00 0.00 0.00 61 1017.5
20260902131522 78 285 1.7 3.5 0.00 0.00 0.00 62 1017.5
20260902131022 77 247 0.9 3.5 0.00 0.00 0.00 62 1017.6
20260902130518 77 283 0.0 3.5 0.00 0.00 0.00 63 1017.2
20260902130013 76 189 2.6 2.6 0.00 0.00 0.00 63 1017.5
20260902125509 76 255 0.9 3.5 0.00 0.00 0.00 64 1017.3
20260902125004 75 241 1.7 3.5 0.00 0.00 0.00 65 1017.4
20260902124501 75 314 0.0 2.6 0.00 0.00 0.00 65 1017.3
20260902123955 75 264 0.0 1.7 0.00 0.00 0.00 65 1017.3
20260902123452 75 221 1.7 3.5 0.00 0.00 0.00 65 1017.4
20260902122950 75 199 2.6 4.3 0.00 0.00 0.00 65 1017.1
20260902122446 75 209 1.7 3.5 0.00 0.00 0.00 65 1017.1
20260902121941 74 229 0.0 1.7 0.00 0.00 0.00 65 1017.1
20260902121441 74 202 0.9 2.6 0.00 0.00 0.00 65 1017.3
20260902120936 75 233 0.0 1.7 0.00 0.00 0.00 64 1017.1
20260902120433 75 293 0.0 1.7 0.00 0.00 0.00 64 1017.0
20260902115932 75 282 0.0 3.5 0.00 0.00 0.00 63 1017.2
20260902115428 75 225 1.7 2.6 0.00 0.00 0.00 63 1017.1
20260902114925 76 264 0.9 2.6 0.00 0.00 0.00 62 1017.1
20260902114421 75 230 1.7 3.5 0.00 0.00 0.00 63 1017.1
20260902113921 75 191 0.0 1.7 0.00 0.00 0.00 63 1017.1
20260902113417 75 182 0.0 2.6 0.00 0.00 0.00 63 1016.8
20260902112916 75 304 0.0 1.7 0.00 0.00 0.00 63 1017.0
20260902112412 75 279 0.0 1.7 0.00 0.00 0.00 64 1017.1
20260902111908 75 224 0.0 1.7 0.00 0.00 0.00 63 1016.6
20260902111404 75 249 0.9 2.6 0.00 0.00 0.00 63 1016.6
20260902110900 75 230 1.7 1.7 0.00 0.00 0.00 63 1016.8
20260902110355 75 335 0.9 0.9 0.00 0.00 0.00 62 1016.6
20260902105855 75 10 0.0 1.7 0.00 0.00 0.00 62 1017.0
20260902105350 76 232 0.0 2.6 0.00 0.00 0.00 61 1016.5
20260902104845 76 315 0.9 2.6 0.00 0.00 0.00 61 1016.8
20260902104342 76 185 0.9 2.6 0.00 0.00 0.00 61 1016.6
20260902103841 76 196 0.9 2.6 0.00 0.00 0.00 60 1016.6
20260902103336 76 225 1.7 2.6 0.00 0.00 0.00 60 1016.6
20260902102831 76 224 0.0 1.7 0.00 0.00 0.00 60 1016.6
20260902102329 76 244 1.7 4.3 0.00 0.00 0.00 60 1016.7
20260902101824 76 285 0.9 1.7 0.00 0.00 0.00 60 1016.5
20260902101319 76 286 0.9 1.7 0.00 0.00 0.00 60 1016.6
20260902100819 76 230 1.7 2.6 0.00 0.00 0.00 60 1016.6
20260902100318 76 259 2.6 2.6 0.00 0.00 0.00 59 1016.3
20260902095814 76 262 0.9 3.5 0.00 0.00 0.00 59 1016.5
20260902095314 76 272 2.6 2.6 0.00 0.00 0.00 59 1016.3
20260902094808 76 260 1.7 2.6 0.00 0.00 0.00 59 1016.6
20260902094304 76 0 0.0 2.6 0.00 0.00 0.00 59 1016.5
20260902093804 76 193 1.7 2.6 0.00 0.00 0.00 59 1016.3
20260902093259 76 259 1.7 1.7 0.00 0.00 0.00 58 1016.5
20260902092758 77 242 0.9 1.7 0.00 0.00 0.00 58 1016.3
20260902092254 76 274 0.9 2.6 0.00 0.00 0.00 58 1016.3
20260902091753 76 242 2.6 3.5 0.00 0.00 0.00 58 1016.4
20260902091249 76 297 0.0 1.7 0.00 0.00 0.00 58 1016.4
20260902090746 77 253 0.0 1.7 0.00 0.00 0.00 58 1016.4
20260902090245 77 269 0.0 2.6 0.00 0.00 0.00 58 1016.4
20260902085744 77 218 0.0 2.6 0.00 0.00 0.00 57 1016.4
20260902085240 77 236 2.6 2.6 0.00 0.00 0.00 57 1016.3
20260902084735 77 267 0.0 1.7 0.00 0.00 0.00 57 1016.2
20260902084232 77 229 0.0 2.6 0.00 0.00 0.00 56 1016.2
20260902083731 77 260 0.9 1.7 0.00 0.00 0.00 56 1016.4
20260902083226 78 242 0.9 2.6 0.00 0.00 0.00 56 1016.1
20260902082721 78 242 0.9 1.7 0.00 0.00 0.00 56 1016.1
20260902082218 78 278 0.9 3.5 0.00 0.00 0.00 55 1016.1
20260902081714 78 218 0.0 1.7 0.00 0.00 0.00 55 1016.2
20260902081209 78 267 0.9 1.7 0.00 0.00 0.00 55 1016.0
20260902080704 78 275 0.0 1.7 0.00 0.00 0.00 55 1015.9
20260902080200 78 246 0.0 0.9 0.00 0.00 0.00 54 1016.2
20260902075700 78 209 0.0 3.5 0.00 0.00 0.00 54 1016.3
20260902075156 79 312 0.0 2.6 0.00 0.00 0.00 54 1016.4
20260902074656 79 269 0.0 1.7 0.00 0.00 0.00 54 1016.3
20260902074151 79 319 0.0 1.7 0.00 0.00 0.00 53 1016.2
20260902073647 79 333 0.0 1.7 0.00 0.00 0.00 53 1016.3
20260902073143 79 254 1.7 1.7 0.00 0.00 0.00 53 1016.4
20260902072639 79 343 0.0 1.7 0.00 0.00 0.00 53 1016.3
20260902072135 79 283 1.7 1.7 0.00 0.00 0.00 52 1016.0
20260902071631 80 347 0.0 1.7 0.00 0.00 0.00 52 1016.0
20260902071126 80 135 2.6 2.6 0.00 0.00 0.00 51 1016.1
20260902070622 80 12 0.9 1.7 0.00 0.00 0.00 51 1016.0
20260902070116 80 305 0.9 1.7 0.00 0.00 0.00 51 1016.2
20260902065615 80 297 0.0 0.9 0.00 0.00 0.00 51 1016.2
20260902065111 80 342 0.9 2.6 0.00 0.00 0.00 51 1016.2
20260902064606 80 333 0.9 1.7 0.00 0.00 0.00 51 1016.1
20260902064101 80 232 0.0 1.7 0.00 0.00 0.00 50 1016.1
20260902063556 80 15 0.0 1.7 0.00 0.00 0.00 50 1015.9
20260902063051 80 269 0.0 1.7 0.00 0.00 0.00 50 1016.2
20260902062549 80 256 1.7 1.7 0.00 0.00 0.00 49 1016.3
20260902062045 80 78 1.7 1.7 0.00 0.00 0.00 49 1015.9
20260902061545 80 31 0.0 1.7 0.00 0.00 0.00 49 1016.2
20260902061041 80 320 0.9 1.7 0.00 0.00 0.00 49 1016.2
20260902060537 80 274 0.0 2.6 0.00 0.00 0.00 49 1015.9
20260902060033 80 353 0.9 1.7 0.00 0.00 0.00 48 1015.8
20260902055529 81 320 0.0 1.7 0.00 0.00 0.00 48 1016.1
20260902055024 80 166 1.7 1.7 0.00 0.00 0.00 48 1016.0
20260902054519 80 22 0.0 1.7 0.00 0.00 0.00 47 1015.9
20260902054015 80 38 0.9 1.7 0.00 0.00 0.00 47 1016.1
20260902053510 80 1 0.0 0.9 0.00 0.00 0.00 47 1015.9
20260902053009 80 54 1.7 1.7 0.00 0.00 0.00 47 1016.0
20260902052504 80 54 0.9 1.7 0.00 0.00 0.00 47 1015.9
20260902052000 80 59 0.0 1.7 0.00 0.00 0.00 47 1016.1
20260902051459 80 50 0.0 1.7 0.00 0.00 0.00 47 1016.1
20260902050958 80 346 0.0 0.9 0.00 0.00 0.00 47 1015.9
20260902050459 80 337 0.0 0.9 0.00 0.00 0.00 47 1016.1
20260902045954 80 352 0.0 0.9 0.00 0.00 0.00 46 1016.0
20260902045449 80 30 0.0 0.9 0.00 0.00 0.00 46 1016.2
20260902044946 81 52 0.0 1.7 0.00 0.00 0.00 46 1016.3
20260902044441 81 22 0.0 0.9 0.00 0.00 0.00 45 1016.0
20260902043936 81 326 0.0 0.9 0.00 0.00 0.00 45 1016.0
20260902043436 81 34 0.0 1.7 0.00 0.00 0.00 45 1015.9
20260902042932 81 322 0.0 1.7 0.00 0.00 0.00 45 1015.8
20260902042431 82 323 0.0 0.9 0.00 0.00 0.00 44 1016.0
20260902041926 82 41 0.9 1.7 0.00 0.00 0.00 44 1016.1
20260902041421 82 325 0.9 2.6 0.00 0.00 0.00 43 1016.0
20260902040920 82 50 0.0 1.7 0.00 0.00 0.00 43 1016.0
20260902040415 82 30 0.0 1.7 0.00 0.00 0.00 43 1016.0
20260902035914 82 18 0.0 0.9 0.00 0.00 0.00 44 1015.9
20260902035409 82 347 0.9 1.7 0.00 0.00 0.00 43 1016.2
20260902034908 82 6 0.0 1.7 0.00 0.00 0.00 43 1016.1
20260902034403 82 0 0.9 1.7 0.00 0.00 0.00 43 1015.8
20260902033902 83 316 0.0 1.7 0.00 0.00 0.00 43 1016.0
20260902033357 83 322 0.0 1.7 0.00 0.00 0.00 43 1016.0
20260902032856 83 329 0.9 1.7 0.00 0.00 0.00 42 1015.8
20260902032351 83 343 0.0 1.7 0.00 0.00 0.00 42 1016.0
20260902031851 83 0 0.9 1.7 0.00 0.00 0.00 42 1015.9
20260902031347 83 8 0.0 0.9 0.00 0.00 0.00 42 1015.9
20260902030842 83 342 1.7 1.7 0.00 0.00 0.00 42 1015.9
20260902030337 84 343 0.9 1.7 0.00 0.00 0.00 41 1015.7
20260902025836 84 16 0.0 0.9 0.00 0.00 0.00 41 1015.6
20260902025332 84 352 0.0 0.9 0.00 0.00 0.00 41 1015.6
20260902024832 84 32 0.0 0.9 0.00 0.00 0.00 41 1015.7
20260902024328 85 55 0.0 0.9 0.00 0.00 0.00 40 1015.6
20260902023823 85 25 0.0 0.9 0.00 0.00 0.00 40 1015.6
20260902023318 85 60 0.0 0.9 0.00 0.00 0.00 40 1015.4
20260902022817 85 40 0.9 0.9 0.00 0.00 0.00 39 1015.3
20260902022312 86 347 0.0 0.9 0.00 0.00 0.00 39 1015.3
20260902021808 86 350 0.9 1.7 0.00 0.00 0.00 38 1015.2
20260902021303 86 25 0.0 0.9 0.00 0.00 0.00 38 1015.1
20260902020759 87 353 0.0 0.9 0.00 0.00 0.00 37 1014.9
20260902020255 87 354 0.9 0.9 0.00 0.00 0.00 37 1015.0
20260902015749 87 48 0.0 1.7 0.00 0.00 0.00 37 1015.2
20260902015246 88 19 0.0 1.7 0.00 0.00 0.00 36 1015.0
20260902014742 88 51 0.9 1.7 0.00 0.00 0.00 36 1014.8
20260902014238 89 41 0.9 1.7 0.00 0.00 0.00 35 1014.8
20260902013736 89 50 0.9 1.7 0.00 0.00 0.00 35 1014.9
20260902013232 90 3 1.7 1.7 0.00 0.00 0.00 34 1014.9
20260902012727 90 5 0.0 1.7 0.00 0.00 0.00 34 1014.7
20260902012223 90 343 0.0 1.7 0.00 0.00 0.00 34 1014.7
20260902011719 90 347 0.9 1.7 0.00 0.00 0.00 33 1014.6
20260902011218 91 73 1.7 1.7 0.00 0.00 0.00 33 1014.7
20260902010717 91 164 0.0 1.7 0.00 0.00 0.00 33 1014.7
20260902010214 91 337 0.9 0.9 0.00 0.00 0.00 33 1014.6
20260902005712 92 358 0.0 1.7 0.00 0.00 0.00 32 1014.6
20260902005208 92 60 0.0 0.9 0.00 0.00 0.00 32 1014.6
20260902004707 93 48 0.9 1.7 0.00 0.00 0.00 31 1014.7
20260902004202 93 297 0.9 1.7 0.00 0.00 0.00 30 1014.6
20260902003658 94 51 0.9 1.7 0.00 0.00 0.00 29 1014.6
20260902003153 95 305 0.9 1.7 0.00 0.00 0.00 29 1014.7
20260902002649 95 25 0.0 1.7 0.00 0.00 0.00 29 1014.6
20260902002149 96 343 0.0 1.7 0.00 0.00 0.00 29 1014.6
20260902001644 97 14 0.0 2.6 0.00 0.00 0.00 28 1014.7
20260902001143 97 62 0.0 0.9 0.00 0.00 0.00 28 1014.8
20260902000639 98 342 0.9 1.7 0.00 0.00 0.00 27 1014.7
20260902000134 99 207 0.0 2.6 0.00 0.00 0.00 26 1015.0
20260901235633 100 31 0.0 7.0 0.00 0.00 0.00 25 1014.8
20260901235129 100 89 0.0 5.2 0.00 0.00 0.00 25 1014.7
20260901234628 100 0 0.0 4.3 0.00 0.00 0.00 25 1014.7
20260901234123 101 206 3.5 5.2 0.00 0.00 0.00 24 1014.8
20260901233618 101 63 1.7 4.3 0.00 0.00 0.00 24 1014.9
20260901233114 101 204 2.6 5.2 0.00 0.00 0.00 24 1014.9
20260901232614 102 99 1.7 3.5 0.00 0.00 0.00 24 1014.8
20260901232109 102 357 0.0 2.6 0.00 0.00 0.00 24 1014.7
20260901231606 102 225 0.9 5.2 0.00 0.00 0.00 24 1014.7
20260901231102 102 232 0.0 2.6 0.00 0.00 0.00 24 1014.9
20260901230557 102 106 0.9 3.5 0.00 0.00 0.00 24 1014.9
20260901230057 102 318 0.0 3.5 0.00 0.00 0.00 24 1014.7
20260901225552 103 314 0.9 3.5 0.00 0.00 0.00 23 1014.7
20260901225052 103 220 0.0 5.2 0.00 0.00 0.00 23 1014.9